Location: Newark
(40.4667°N, 5.6000°W)
Time: 16:07:37
(UTC+00:00)

Transit 4A - All Passes

Search period start: 17 November 2019 00:00
Search period end: 27 November 2019 00:00
Orbit: 868 x 976 km, 66.8° (Epoch: 16 November)

Date Brightness Start Highest point End Pass type
(mag) Time Alt. Az. Time Alt. Az. Time Alt. Az.
17 Nov - 06:47:24 10° NNW 06:52:48 36° NE 06:58:06 10° ESE daylight
17 Nov - 08:33:48 10° NW 08:39:07 37° WSW 08:44:22 10° S daylight
17 Nov - 21:53:06 10° S 21:59:11 53° ESE 22:05:09 10° NE night (unlit)
17 Nov - 23:40:26 10° WSW 23:45:49 29° NW 23:51:06 10° N night (unlit)
18 Nov - 05:12:44 10° NNE 05:14:27 11° NNE 05:16:10 10° NE visible
18 Nov - 06:56:32 10° NNW 07:02:18 51° NE 07:07:56 10° SE daylight
18 Nov - 08:43:39 10° NW 08:48:14 24° WSW 08:52:46 10° SSW daylight
18 Nov - 20:21:31 10° ESE 20:23:05 11° E 20:24:38 10° E night (unlit)
18 Nov - 22:02:10 10° SSW 22:08:27 78° ESE 22:14:37 10° NNE night (unlit)
18 Nov - 23:50:48 10° W 23:55:28 21° NW 00:00:03 10° N night (unlit)
19 Nov - 05:20:56 10° N 05:24:18 15° NE 05:27:38 10° ENE visible
19 Nov - 07:05:47 10° NNW 07:11:42 76° ENE 07:17:29 10° SE daylight
19 Nov - 08:54:01 10° WNW 08:57:16 15° WSW 09:00:30 10° SW daylight
19 Nov - 20:28:03 10° SE 20:32:05 18° ESE 20:36:03 10° ENE night (unlit)
19 Nov - 22:11:31 10° SW 22:17:48 74° WNW 22:23:58 10° NNE night (unlit)
20 Nov - 00:01:33 10° WNW 00:05:12 16° NW 00:08:49 10° N night (unlit)
20 Nov - 05:29:40 10° N 05:34:02 21° NE 05:38:21 10° E visible
20 Nov - 07:15:08 10° NNW 07:21:01 74° WSW 07:26:47 10° SSE daylight
20 Nov - 20:36:00 10° SSE 20:41:10 27° ESE 20:46:14 10° NE night (unlit)
20 Nov - 22:21:08 10° SW 22:27:13 51° NW 22:33:11 10° NNE night (unlit)
21 Nov - 00:12:57 10° NW 00:15:03 12° NW 00:17:08 10° NNW night (unlit)
21 Nov - 05:38:38 10° N 05:43:41 29° NE 05:48:40 10° ESE visible
21 Nov - 07:24:38 10° NW 07:30:15 48° WSW 07:35:47 10° S daylight
21 Nov - 20:44:30 10° S 20:50:19 41° ESE 20:56:01 10° NE night (unlit)
21 Nov - 22:31:00 10° WSW 22:36:42 36° NW 22:42:19 10° NNE night (unlit)
22 Nov - 05:47:41 10° NNW 05:53:14 40° NE 05:58:40 10° ESE visible
22 Nov - 07:34:19 10° NW 07:39:25 32° WSW 07:44:27 10° S daylight
22 Nov - 20:53:22 10° SSW 20:59:32 61° ESE 21:05:35 10° NE night (unlit)
22 Nov - 22:41:10 10° WSW 22:46:18 26° NW 22:51:21 10° N night (unlit)
23 Nov - 04:12:35 10° N 04:15:01 12° NE 04:17:26 10° ENE visible
23 Nov - 05:56:53 10° NNW 06:02:42 59° ENE 06:08:24 10° SE visible
23 Nov - 07:44:19 10° WNW 07:48:30 21° WSW 07:52:38 10° SSW daylight
23 Nov - 19:20:33 10° SE 19:23:19 13° ESE 19:26:04 10° ENE night (unlit)
23 Nov - 21:02:31 10° SSW 21:08:50 88° ESE 21:15:00 10° NNE night (unlit)
23 Nov - 22:51:39 10° W 22:55:58 19° NW 23:00:14 10° N night (unlit)
24 Nov - 04:21:04 10° N 04:24:50 17° NE 04:28:32 10° E visible
24 Nov - 06:06:09 10° NNW 06:12:04 87° ENE 06:17:52 10° SSE visible
24 Nov - 07:55:04 10° WNW 07:57:30 13° WSW 07:59:57 10° SW daylight
24 Nov - 19:27:52 10° SSE 19:32:22 21° ESE 19:36:47 10° ENE visible
24 Nov - 21:11:58 10° SW 21:18:12 65° WNW 21:24:17 10° NNE night (unlit)
24 Nov - 23:02:36 10° WNW 23:05:45 14° NW 23:08:53 10° N night (unlit)
25 Nov - 04:29:54 10° N 04:34:31 23° NE 04:39:06 10° E visible
25 Nov - 06:15:33 10° NW 06:21:21 63° WSW 06:27:03 10° SSE visible
25 Nov - 19:36:03 10° SSE 19:41:28 31° ESE 19:46:48 10° NE visible
25 Nov - 21:21:41 10° SW 21:27:38 45° NW 21:33:29 10° NNE visible
25 Nov - 23:14:40 10° NW 23:15:38 10° NNW 23:16:35 10° NNW night (unlit)
26 Nov - 04:38:54 10° NNW 04:44:09 32° NE 04:49:18 10° ESE visible
26 Nov - 06:25:06 10° NW 06:30:33 41° WSW 06:35:56 10° S visible
26 Nov - 19:44:41 10° S 19:50:39 47° ESE 19:56:29 10° NE visible
26 Nov - 21:31:40 10° WSW 21:37:10 32° NW 21:42:35 10° NNE visible
